No identification:

 

2000 CR101                                                                  

Epoch 2000 Feb. 26.0 TT = JDT 2451600.5                 Nakano

M  19.23121              (2000.0)            P               Q

n   0.44677239     Peri.  152.80125     -0.59721842     -0.80206541

a   1.6946441      Node   333.86890     +0.73397701     -0.54418455

e   0.2456570      Incl.    0.59960     +0.32343145     -0.24607774

P   2.21           H   19.8           G   0.15           U   6

Residuals in seconds of arc 

K002B  691  0.1+  0.2-    K002G  422  0.2-  0.5+    K0033  704  0.0   0.1-  

K002B  691  0.1+  0.4-    K002G  422  0.1+  0.3-    K0033  704  0.2-  0.5+  

K002B  691  0.2+  0.4-    K002O  413  0.3+  0.3-    K0033  704  0.1-  0.1+  

K002C  691  0.4-  0.1-    K002O  413  0.2+  0.3+    K0033  704  0.4+  1.2+  

K002C  691  0.3-  0.2-    K002P  413  0.2-  0.1+    K0033  704  0.1+  0.9+  

K002C  691  0.3-  0.3-    K002P  413  0.3+  0.1-    K0034  691  0.2-  0.4+  

K002D  595  0.5-  0.0     K002P  413  0.3-  0.2-    K0034  691  0.4-  0.4+  

K002D  595  1.0+  0.2+    K002P  413  0.0   0.1-    K0034  691  0.3+  0.5-  

K002D  595  0.2+  0.5+    K002Q  691  0.1-  0.4-    K0034  118  0.1+  0.5+  

K002D  046  0.9+  0.0     K002Q  691  0.3-  0.5-    K0034  118  0.2-  0.4+  

K002D  046  0.4-  1.4-    K002Q  691  0.1-  0.4-    K0034  118  0.3+  0.1-  

K002D  046  0.6-  0.7-    K002R  360  0.1-  0.1-    K0038  691  0.5-  0.6-  

K002D  046  0.2+  0.4+    K002R  360  0.2-  0.2-    K0038  691  0.6-  0.5-  

K002D  046  0.4+  0.8+    K002R  360  0.3+  0.6+    K0038  691  0.4-  0.6-  

K002E  595 (3.0-  2.9+)   K002S  540  0.1-  0.1+    K003B  704  0.0   0.4+  

K002E  595  1.0-  1.4+    K002S  540  0.1-  0.1-    K003B  704  0.3+  0.1+  

K002F  658  0.4+  0.2-    K002S  540  0.1+  0.0     K003B  704  0.2-  0.4+  

K002F  658  0.3-  0.2+    K002S  540  0.4-  0.2-    K003B  704  0.8+  0.8+  

K002G  651 (1.7-  2.4-)   K002T  704  0.6+  0.2-    K003D  360  0.0   0.5-  

K002G  651  0.1-  0.0     K002T  704  0.4+  0.6-    K003D  360  0.4-  0.7-  

K002G  651  0.2-  0.6-    K002T  704  0.7+  0.5+    K003D  360  0.2+  1.3-  

K002G  422  0.5+  0.3+    K002T  704  0.2+  0.7+                            

 

NAKANO

         **** Don't distribute anyone except personal use only ****

                (C) Copyright 2000 OAA/ComputingSection

write mail from CFAD0::NAKANO on 2000-03-15 23:50:44(JST).





–ß‚è‚Ü‚·B